owner,sensor,date,latitude,longitude,air_pressure(mBar),qcFlag 
COMPS,ioos:station:USF.COMPS:C12:1,2019-09-01T00:35:00,27.4980,-83.7220,1013.28,11111222 
COMPS,ioos:station:USF.COMPS:C12:1,2019-09-01T01:35:00,27.4980,-83.7220,1013.77,11111222 
COMPS,ioos:station:USF.COMPS:C12:1,2019-09-01T02:35:00,27.4980,-83.7220,1014.23,11111222 
COMPS,ioos:station:USF.COMPS:C12:1,2019-09-01T03:35:00,27.4980,-83.7220,1014.22,11111222 
COMPS,ioos:station:USF.COMPS:C12:1,2019-09-01T04:35:00,27.4980,-83.7220,1014.14,11111222 
COMPS,ioos:station:USF.COMPS:C12:1,2019-09-01T05:35:00,27.4980,-83.7220,1013.58,11111222 
COMPS,ioos:station:USF.COMPS:C12:1,2019-09-01T06:35:00,27.4980,-83.7220,1013.62,11111222 
COMPS,ioos:station:USF.COMPS:C12:1,2019-09-01T07:35:00,27.4980,-83.7220,1013.22,11111222 
COMPS,ioos:station:USF.COMPS:C12:1,2019-09-01T08:35:00,27.4980,-83.7220,1013.42,11111222 
COMPS,ioos:station:USF.COMPS:C12:1,2019-09-01T09:35:00,27.4980,-83.7220,1013.07,11111222 
COMPS,ioos:station:USF.COMPS:C12:1,2019-09-01T10:35:00,27.4980,-83.7220,1013.41,11111222 
COMPS,ioos:station:USF.COMPS:C12:1,2019-09-01T11:35:00,27.4980,-83.7220,1013.57,11111222 
COMPS,ioos:station:USF.COMPS:C12:1,2019-09-01T12:35:00,27.4980,-83.7220,1013.72,11111222 
COMPS,ioos:station:USF.COMPS:C12:1,2019-09-01T13:35:00,27.4980,-83.7220,1014.32,11111222 
COMPS,ioos:station:USF.COMPS:C12:1,2019-09-01T14:35:00,27.4980,-83.7220,1014.68,11111222 
COMPS,ioos:station:USF.COMPS:C12:1,2019-09-01T15:35:00,27.4980,-83.7220,1014.84,11111222 
COMPS,ioos:station:USF.COMPS:C12:1,2019-09-01T16:35:00,27.4980,-83.7220,1014.42,11111222 
COMPS,ioos:station:USF.COMPS:C12:1,2019-09-01T17:35:00,27.4980,-83.7220,1014.27,11111222 
COMPS,ioos:station:USF.COMPS:C12:1,2019-09-01T18:35:00,27.4980,-83.7220,1013.59,11111222 
COMPS,ioos:station:USF.COMPS:C12:1,2019-09-01T19:35:00,27.4980,-83.7220,1012.72,11111222 
COMPS,ioos:station:USF.COMPS:C12:1,2019-09-01T20:35:00,27.4980,-83.7220,1012.34,11111222 
COMPS,ioos:station:USF.COMPS:C12:1,2019-09-01T21:35:00,27.4980,-83.7220,1012.48,11111222 
COMPS,ioos:station:USF.COMPS:C12:1,2019-09-01T22:35:00,27.4980,-83.7220,1012.45,11111222 
COMPS,ioos:station:USF.COMPS:C12:1,2019-09-01T23:35:00,27.4980,-83.7220,1012.53,11111222 
COMPS,ioos:station:USF.COMPS:C12:1,2019-09-02T01:35:00,27.4980,-83.7220,1012.83,11111222 
COMPS,ioos:station:USF.COMPS:C12:1,2019-09-02T02:35:00,27.4980,-83.7220,1012.81,11111222 
COMPS,ioos:station:USF.COMPS:C12:1,2019-09-02T03:35:00,27.4980,-83.7220,1012.56,11111222 
COMPS,ioos:station:USF.COMPS:C12:1,2019-09-02T04:35:00,27.4980,-83.7220,1012.29,11111222 
COMPS,ioos:station:USF.COMPS:C12:1,2019-09-02T05:35:00,27.4980,-83.7220,1011.84,11111222 
COMPS,ioos:station:USF.COMPS:C12:1,2019-09-02T06:35:00,27.4980,-83.7220,1011.55,11111222 
COMPS,ioos:station:USF.COMPS:C12:1,2019-09-02T07:35:00,27.4980,-83.7220,1010.75,11111222 
COMPS,ioos:station:USF.COMPS:C12:1,2019-09-02T08:35:00,27.4980,-83.7220,1010.59,11111222 
COMPS,ioos:station:USF.COMPS:C12:1,2019-09-02T09:35:00,27.4980,-83.7220,1010.78,11111222 
COMPS,ioos:station:USF.COMPS:C12:1,2019-09-02T10:35:00,27.4980,-83.7220,1011.24,11111222 
COMPS,ioos:station:USF.COMPS:C12:1,2019-09-02T11:35:00,27.4980,-83.7220,1011.58,11111222 
COMPS,ioos:station:USF.COMPS:C12:1,2019-09-02T12:35:00,27.4980,-83.7220,1011.96,11111222 
COMPS,ioos:station:USF.COMPS:C12:1,2019-09-02T15:35:00,27.4980,-83.7220,1012.64,11111222 
COMPS,ioos:station:USF.COMPS:C12:1,2019-09-02T16:35:00,27.4980,-83.7220,1012.02,11111222 
COMPS,ioos:station:USF.COMPS:C12:1,2019-09-02T17:35:00,27.4980,-83.7220,1011.49,11111222 
COMPS,ioos:station:USF.COMPS:C12:1,2019-09-02T18:35:00,27.4980,-83.7220,1010.78,11111222 
COMPS,ioos:station:USF.COMPS:C12:1,2019-09-02T19:35:00,27.4980,-83.7220,1010.51,11111222 
COMPS,ioos:station:USF.COMPS:C12:1,2019-09-02T20:35:00,27.4980,-83.7220,1009.82,11111222 
COMPS,ioos:station:USF.COMPS:C12:1,2019-09-02T21:35:00,27.4980,-83.7220,1009.64,11111222 
COMPS,ioos:station:USF.COMPS:C12:1,2019-09-02T22:35:00,27.4980,-83.7220,1009.98,11111222 
COMPS,ioos:station:USF.COMPS:C12:1,2019-09-02T23:35:00,27.4980,-83.7220,1009.98,11111222 
COMPS,ioos:station:USF.COMPS:C12:1,2019-09-03T00:35:00,27.4980,-83.7220,1009.95,11111222 
COMPS,ioos:station:USF.COMPS:C12:1,2019-09-03T01:35:00,27.4980,-83.7220,1010.38,11111222 
COMPS,ioos:station:USF.COMPS:C12:1,2019-09-03T02:35:00,27.4980,-83.7220,1010.79,11111222 
COMPS,ioos:station:USF.COMPS:C12:1,2019-09-03T03:35:00,27.4980,-83.7220,1010.8,11111222 
COMPS,ioos:station:USF.COMPS:C12:1,2019-09-03T04:35:00,27.4980,-83.7220,1010.32,11111222 
COMPS,ioos:station:USF.COMPS:C12:1,2019-09-03T05:35:00,27.4980,-83.7220,1009.71,11111222 
COMPS,ioos:station:USF.COMPS:C12:1,2019-09-03T06:35:00,27.4980,-83.7220,1009.28,11111222 
COMPS,ioos:station:USF.COMPS:C12:1,2019-09-03T07:35:00,27.4980,-83.7220,1008.77,11111222 
COMPS,ioos:station:USF.COMPS:C12:1,2019-09-03T08:35:00,27.4980,-83.7220,1008.63,11111222 
COMPS,ioos:station:USF.COMPS:C12:1,2019-09-03T09:35:00,27.4980,-83.7220,1008.66,11111222 
COMPS,ioos:station:USF.COMPS:C12:1,2019-09-03T10:35:00,27.4980,-83.7220,1009.25,11111222 
COMPS,ioos:station:USF.COMPS:C12:1,2019-09-03T11:35:00,27.4980,-83.7220,1009.63,11111222 
COMPS,ioos:station:USF.COMPS:C12:1,2019-09-03T12:35:00,27.4980,-83.7220,1010.35,11111222 
COMPS,ioos:station:USF.COMPS:C12:1,2019-09-03T13:35:00,27.4980,-83.7220,1010.82,11111222 
COMPS,ioos:station:USF.COMPS:C12:1,2019-09-03T14:35:00,27.4980,-83.7220,1011.1,11111222 
COMPS,ioos:station:USF.COMPS:C12:1,2019-09-03T15:35:00,27.4980,-83.7220,1011.07,11111222 
COMPS,ioos:station:USF.COMPS:C12:1,2019-09-03T16:35:00,27.4980,-83.7220,1010.84,11111222 
COMPS,ioos:station:USF.COMPS:C12:1,2019-09-03T17:35:00,27.4980,-83.7220,1010.52,11111222 
COMPS,ioos:station:USF.COMPS:C12:1,2019-09-03T18:35:00,27.4980,-83.7220,1010.12,11111222 
COMPS,ioos:station:USF.COMPS:C12:1,2019-09-03T19:35:00,27.4980,-83.7220,1009.51,11111222 
COMPS,ioos:station:USF.COMPS:C12:1,2019-09-03T20:35:00,27.4980,-83.7220,1009.06,11111222 
COMPS,ioos:station:USF.COMPS:C12:1,2019-09-03T21:35:00,27.4980,-83.7220,1009.41,11111222 
COMPS,ioos:station:USF.COMPS:C12:1,2019-09-03T22:35:00,27.4980,-83.7220,1009.16,11111222 
COMPS,ioos:station:USF.COMPS:C12:1,2019-09-03T23:35:00,27.4980,-83.7220,1009.23,11111222 
COMPS,ioos:station:USF.COMPS:C12:1,2019-09-04T00:35:00,27.4980,-83.7220,1010.06,11111222 
COMPS,ioos:station:USF.COMPS:C12:1,2019-09-04T01:35:00,27.4980,-83.7220,1010.5,11111222 
COMPS,ioos:station:USF.COMPS:C12:1,2019-09-04T02:35:00,27.4980,-83.7220,1010.83,11111222 
COMPS,ioos:station:USF.COMPS:C12:1,2019-09-04T03:35:00,27.4980,-83.7220,1010.9,11111222 
COMPS,ioos:station:USF.COMPS:C12:1,2019-09-04T04:35:00,27.4980,-83.7220,1010.58,11111222 
COMPS,ioos:station:USF.COMPS:C12:1,2019-09-04T05:35:00,27.4980,-83.7220,1010.4,11111222 
COMPS,ioos:station:USF.COMPS:C12:1,2019-09-04T06:35:00,27.4980,-83.7220,1010.1,11111222 
COMPS,ioos:station:USF.COMPS:C12:1,2019-09-04T07:35:00,27.4980,-83.7220,1009.64,11111222 
COMPS,ioos:station:USF.COMPS:C12:1,2019-09-04T08:35:00,27.4980,-83.7220,1009.88,11111222 
COMPS,ioos:station:USF.COMPS:C12:1,2019-09-04T09:35:00,27.4980,-83.7220,1010.25,11111222 
COMPS,ioos:station:USF.COMPS:C12:1,2019-09-04T10:35:00,27.4980,-83.7220,1010.81,11111222 
COMPS,ioos:station:USF.COMPS:C12:1,2019-09-04T11:35:00,27.4980,-83.7220,1011.01,11111222 
COMPS,ioos:station:USF.COMPS:C12:1,2019-09-04T12:35:00,27.4980,-83.7220,1011.87,11111222 
COMPS,ioos:station:USF.COMPS:C12:1,2019-09-04T13:35:00,27.4980,-83.7220,1012.31,11111222 
COMPS,ioos:station:USF.COMPS:C12:1,2019-09-04T14:35:00,27.4980,-83.7220,1012.57,11111222 
COMPS,ioos:station:USF.COMPS:C12:1,2019-09-04T15:35:00,27.4980,-83.7220,1012.44,11111222 
COMPS,ioos:station:USF.COMPS:C12:1,2019-09-04T16:35:00,27.4980,-83.7220,1012.49,11111222 
COMPS,ioos:station:USF.COMPS:C12:1,2019-09-04T17:35:00,27.4980,-83.7220,1012.36,11111222 
COMPS,ioos:station:USF.COMPS:C12:1,2019-09-04T18:35:00,27.4980,-83.7220,1012.31,11111222 
COMPS,ioos:station:USF.COMPS:C12:1,2019-09-04T19:35:00,27.4980,-83.7220,1011.48,11111222 
COMPS,ioos:station:USF.COMPS:C12:1,2019-09-04T20:35:00,27.4980,-83.7220,1011.62,11111222 
COMPS,ioos:station:USF.COMPS:C12:1,2019-09-04T21:35:00,27.4980,-83.7220,1012.27,11111222 
COMPS,ioos:station:USF.COMPS:C12:1,2019-09-04T22:35:00,27.4980,-83.7220,1012.11,11111222 
COMPS,ioos:station:USF.COMPS:C12:1,2019-09-04T23:35:00,27.4980,-83.7220,1012.1,11111222 
COMPS,ioos:station:USF.COMPS:C12:1,2019-09-05T00:35:00,27.4980,-83.7220,1012.39,11111222 
COMPS,ioos:station:USF.COMPS:C12:1,2019-09-05T01:35:00,27.4980,-83.7220,1012.87,11111222 
COMPS,ioos:station:USF.COMPS:C12:1,2019-09-05T02:35:00,27.4980,-83.7220,1013.39,11111222 
COMPS,ioos:station:USF.COMPS:C12:1,2019-09-05T03:35:00,27.4980,-83.7220,1013.32,11111222 
COMPS,ioos:station:USF.COMPS:C12:1,2019-09-05T04:35:00,27.4980,-83.7220,1013.43,11111222 
COMPS,ioos:station:USF.COMPS:C12:1,2019-09-05T05:35:00,27.4980,-83.7220,1013.59,11111222 
COMPS,ioos:station:USF.COMPS:C12:1,2019-09-05T06:35:00,27.4980,-83.7220,1013.32,11111222 
COMPS,ioos:station:USF.COMPS:C12:1,2019-09-05T07:35:00,27.4980,-83.7220,1013.38,11111222 
COMPS,ioos:station:USF.COMPS:C12:1,2019-09-05T08:35:00,27.4980,-83.7220,1013.32,11111222 
COMPS,ioos:station:USF.COMPS:C12:1,2019-09-05T09:35:00,27.4980,-83.7220,1013.5,11111222 
COMPS,ioos:station:USF.COMPS:C12:1,2019-09-05T10:35:00,27.4980,-83.7220,1013.86,11111222 
COMPS,ioos:station:USF.COMPS:C12:1,2019-09-05T11:35:00,27.4980,-83.7220,1014.26,11111222 
COMPS,ioos:station:USF.COMPS:C12:1,2019-09-05T12:35:00,27.4980,-83.7220,1014.66,11111222 
COMPS,ioos:station:USF.COMPS:C12:1,2019-09-05T13:35:00,27.4980,-83.7220,1015.39,11111222 
COMPS,ioos:station:USF.COMPS:C12:1,2019-09-05T14:35:00,27.4980,-83.7220,1015.41,11111222 
COMPS,ioos:station:USF.COMPS:C12:1,2019-09-05T15:35:00,27.4980,-83.7220,1015.25,11111222 
COMPS,ioos:station:USF.COMPS:C12:1,2019-09-05T16:35:00,27.4980,-83.7220,1015.3,11111222 
COMPS,ioos:station:USF.COMPS:C12:1,2019-09-05T17:35:00,27.4980,-83.7220,1014.94,11111222 
COMPS,ioos:station:USF.COMPS:C12:1,2019-09-05T18:35:00,27.4980,-83.7220,1014.69,11111222 
COMPS,ioos:station:USF.COMPS:C12:1,2019-09-05T19:35:00,27.4980,-83.7220,1014.46,11111222 
COMPS,ioos:station:USF.COMPS:C12:1,2019-09-05T20:35:00,27.4980,-83.7220,1013.94,11111222 
COMPS,ioos:station:USF.COMPS:C12:1,2019-09-05T21:35:00,27.4980,-83.7220,1013.67,11111222 
COMPS,ioos:station:USF.COMPS:C12:1,2019-09-05T22:35:00,27.4980,-83.7220,1013.73,11111222 
COMPS,ioos:station:USF.COMPS:C12:1,2019-09-05T23:35:00,27.4980,-83.7220,1013.56,11111222 
COMPS,ioos:station:USF.COMPS:C12:1,2019-09-06T00:35:00,27.4980,-83.7220,1013.78,11111222 
COMPS,ioos:station:USF.COMPS:C12:1,2019-09-06T01:35:00,27.4980,-83.7220,1014.2,11111222 
COMPS,ioos:station:USF.COMPS:C12:1,2019-09-06T02:35:00,27.4980,-83.7220,1014.49,11111222 
COMPS,ioos:station:USF.COMPS:C12:1,2019-09-06T03:35:00,27.4980,-83.7220,1014.4,11111222 
COMPS,ioos:station:USF.COMPS:C12:1,2019-09-06T04:35:00,27.4980,-83.7220,1014.39,11111222 
COMPS,ioos:station:USF.COMPS:C12:1,2019-09-06T06:35:00,27.4980,-83.7220,1013.69,11111222 
COMPS,ioos:station:USF.COMPS:C12:1,2019-09-06T07:35:00,27.4980,-83.7220,1013.37,11111222 
COMPS,ioos:station:USF.COMPS:C12:1,2019-09-06T08:35:00,27.4980,-83.7220,1013.02,11111222 
COMPS,ioos:station:USF.COMPS:C12:1,2019-09-06T09:35:00,27.4980,-83.7220,1012.93,11111222 
COMPS,ioos:station:USF.COMPS:C12:1,2019-09-06T10:35:00,27.4980,-83.7220,1013.35,11111222 
COMPS,ioos:station:USF.COMPS:C12:1,2019-09-06T11:35:00,27.4980,-83.7220,1013.67,11111222 
COMPS,ioos:station:USF.COMPS:C12:1,2019-09-06T12:35:00,27.4980,-83.7220,1013.82,11111222 
COMPS,ioos:station:USF.COMPS:C12:1,2019-09-06T13:35:00,27.4980,-83.7220,1014.24,11111222 
COMPS,ioos:station:USF.COMPS:C12:1,2019-09-06T14:35:00,27.4980,-83.7220,1014.61,11111222 
COMPS,ioos:station:USF.COMPS:C12:1,2019-09-06T15:35:00,27.4980,-83.7220,1014.75,11111222 
COMPS,ioos:station:USF.COMPS:C12:1,2019-09-06T16:35:00,27.4980,-83.7220,1014.28,11111222 
COMPS,ioos:station:USF.COMPS:C12:1,2019-09-06T17:35:00,27.4980,-83.7220,1013.95,11111222 
COMPS,ioos:station:USF.COMPS:C12:1,2019-09-06T18:35:00,27.4980,-83.7220,1013.59,11111222 
COMPS,ioos:station:USF.COMPS:C12:1,2019-09-06T19:35:00,27.4980,-83.7220,1012.98,11111222 
COMPS,ioos:station:USF.COMPS:C12:1,2019-09-06T20:35:00,27.4980,-83.7220,1012.41,11111222 
COMPS,ioos:station:USF.COMPS:C12:1,2019-09-06T21:35:00,27.4980,-83.7220,1012.4,11111222 
COMPS,ioos:station:USF.COMPS:C12:1,2019-09-06T22:35:00,27.4980,-83.7220,1012.5,11111222 
COMPS,ioos:station:USF.COMPS:C12:1,2019-09-06T23:35:00,27.4980,-83.7220,1012.74,11111222 
COMPS,ioos:station:USF.COMPS:C12:1,2019-09-07T00:35:00,27.4980,-83.7220,1012.94,11111222 
COMPS,ioos:station:USF.COMPS:C12:1,2019-09-07T01:35:00,27.4980,-83.7220,1013.3,11111222 
COMPS,ioos:station:USF.COMPS:C12:1,2019-09-07T02:35:00,27.4980,-83.7220,1013.69,11111222 
COMPS,ioos:station:USF.COMPS:C12:1,2019-09-07T03:35:00,27.4980,-83.7220,1013.72,11111222 
COMPS,ioos:station:USF.COMPS:C12:1,2019-09-07T04:35:00,27.4980,-83.7220,1013.83,11111222 
COMPS,ioos:station:USF.COMPS:C12:1,2019-09-07T05:35:00,27.4980,-83.7220,1013.66,11111222 
COMPS,ioos:station:USF.COMPS:C12:1,2019-09-07T06:35:00,27.4980,-83.7220,1013.25,11111222 
COMPS,ioos:station:USF.COMPS:C12:1,2019-09-07T07:35:00,27.4980,-83.7220,1013.13,11111222 
COMPS,ioos:station:USF.COMPS:C12:1,2019-09-07T08:35:00,27.4980,-83.7220,1012.84,11111222 
COMPS,ioos:station:USF.COMPS:C12:1,2019-09-07T09:35:00,27.4980,-83.7220,1013.23,11111222 
COMPS,ioos:station:USF.COMPS:C12:1,2019-09-07T10:35:00,27.4980,-83.7220,1013.72,11111222 
COMPS,ioos:station:USF.COMPS:C12:1,2019-09-07T11:35:00,27.4980,-83.7220,1014.09,11111222 
COMPS,ioos:station:USF.COMPS:C12:1,2019-09-07T12:35:00,27.4980,-83.7220,1014.72,11111222 
COMPS,ioos:station:USF.COMPS:C12:1,2019-09-07T13:35:00,27.4980,-83.7220,1014.94,11111222 
COMPS,ioos:station:USF.COMPS:C12:1,2019-09-07T14:35:00,27.4980,-83.7220,1015.31,11111222 
COMPS,ioos:station:USF.COMPS:C12:1,2019-09-07T15:35:00,27.4980,-83.7220,1015.28,11111222 
COMPS,ioos:station:USF.COMPS:C12:1,2019-09-07T16:35:00,27.4980,-83.7220,1014.97,11111222 
COMPS,ioos:station:USF.COMPS:C12:1,2019-09-07T17:35:00,27.4980,-83.7220,1014.75,11111222 
COMPS,ioos:station:USF.COMPS:C12:1,2019-09-07T18:35:00,27.4980,-83.7220,1014.25,11111222 
COMPS,ioos:station:USF.COMPS:C12:1,2019-09-07T19:35:00,27.4980,-83.7220,1013.7,11111222 
COMPS,ioos:station:USF.COMPS:C12:1,2019-09-07T20:35:00,27.4980,-83.7220,1013.34,11111222 
COMPS,ioos:station:USF.COMPS:C12:1,2019-09-07T21:35:00,27.4980,-83.7220,1013.39,11111222 
COMPS,ioos:station:USF.COMPS:C12:1,2019-09-07T22:35:00,27.4980,-83.7220,1013.43,11111222 
COMPS,ioos:station:USF.COMPS:C12:1,2019-09-07T23:35:00,27.4980,-83.7220,1013.41,11111222 
COMPS,ioos:station:USF.COMPS:C12:1,2019-09-08T00:35:00,27.4980,-83.7220,1013.78,11111222 
COMPS,ioos:station:USF.COMPS:C12:1,2019-09-08T01:35:00,27.4980,-83.7220,1014.07,11111222 
COMPS,ioos:station:USF.COMPS:C12:1,2019-09-08T02:35:00,27.4980,-83.7220,1014.42,11111222 
COMPS,ioos:station:USF.COMPS:C12:1,2019-09-08T03:35:00,27.4980,-83.7220,1014.6,11111222 
COMPS,ioos:station:USF.COMPS:C12:1,2019-09-08T04:35:00,27.4980,-83.7220,1014.68,11111222 
COMPS,ioos:station:USF.COMPS:C12:1,2019-09-08T05:35:00,27.4980,-83.7220,1014.83,11111222 
COMPS,ioos:station:USF.COMPS:C12:1,2019-09-08T06:35:00,27.4980,-83.7220,1014.8,11111222 
COMPS,ioos:station:USF.COMPS:C12:1,2019-09-08T07:35:00,27.4980,-83.7220,1014.52,11111222 
COMPS,ioos:station:USF.COMPS:C12:1,2019-09-08T08:35:00,27.4980,-83.7220,1014.43,11111222 
COMPS,ioos:station:USF.COMPS:C12:1,2019-09-08T09:35:00,27.4980,-83.7220,1015.0,11111222 
COMPS,ioos:station:USF.COMPS:C12:1,2019-09-08T10:35:00,27.4980,-83.7220,1015.6,11111222 
COMPS,ioos:station:USF.COMPS:C12:1,2019-09-08T11:35:00,27.4980,-83.7220,1016.34,11111222 
COMPS,ioos:station:USF.COMPS:C12:1,2019-09-08T12:35:00,27.4980,-83.7220,1016.81,11111222 
COMPS,ioos:station:USF.COMPS:C12:1,2019-09-08T13:35:00,27.4980,-83.7220,1016.92,11111222 
COMPS,ioos:station:USF.COMPS:C12:1,2019-09-08T14:35:00,27.4980,-83.7220,1017.21,11111222 
COMPS,ioos:station:USF.COMPS:C12:1,2019-09-08T15:35:00,27.4980,-83.7220,1017.38,11111222 
COMPS,ioos:station:USF.COMPS:C12:1,2019-09-08T16:35:00,27.4980,-83.7220,1017.17,11111222 
COMPS,ioos:station:USF.COMPS:C12:1,2019-09-08T17:35:00,27.4980,-83.7220,1017.02,11111222 
COMPS,ioos:station:USF.COMPS:C12:1,2019-09-08T18:35:00,27.4980,-83.7220,1016.68,11111222 
COMPS,ioos:station:USF.COMPS:C12:1,2019-09-08T19:35:00,27.4980,-83.7220,1016.21,11111222 
COMPS,ioos:station:USF.COMPS:C12:1,2019-09-08T20:35:00,27.4980,-83.7220,1015.85,11111222 
COMPS,ioos:station:USF.COMPS:C12:1,2019-09-08T21:35:00,27.4980,-83.7220,1015.73,11111222 
COMPS,ioos:station:USF.COMPS:C12:1,2019-09-08T22:35:00,27.4980,-83.7220,1015.83,11111222 
COMPS,ioos:station:USF.COMPS:C12:1,2019-09-08T23:35:00,27.4980,-83.7220,1015.86,11111222 
COMPS,ioos:station:USF.COMPS:C12:1,2019-09-09T00:35:00,27.4980,-83.7220,1016.34,11111222 
COMPS,ioos:station:USF.COMPS:C12:1,2019-09-09T01:35:00,27.4980,-83.7220,1016.62,11111222 
COMPS,ioos:station:USF.COMPS:C12:1,2019-09-09T02:35:00,27.4980,-83.7220,1017.32,11111222 
COMPS,ioos:station:USF.COMPS:C12:1,2019-09-09T03:35:00,27.4980,-83.7220,1017.3,11111222 
COMPS,ioos:station:USF.COMPS:C12:1,2019-09-09T04:35:00,27.4980,-83.7220,1017.2,11111222 
COMPS,ioos:station:USF.COMPS:C12:1,2019-09-09T05:35:00,27.4980,-83.7220,1017.45,11111222 
COMPS,ioos:station:USF.COMPS:C12:1,2019-09-09T06:35:00,27.4980,-83.7220,1017.15,11111222 
COMPS,ioos:station:USF.COMPS:C12:1,2019-09-09T07:35:00,27.4980,-83.7220,1017.01,11111222 
COMPS,ioos:station:USF.COMPS:C12:1,2019-09-09T08:35:00,27.4980,-83.7220,1017.09,11111222 
COMPS,ioos:station:USF.COMPS:C12:1,2019-09-09T09:35:00,27.4980,-83.7220,1017.49,11111222 
COMPS,ioos:station:USF.COMPS:C12:1,2019-09-09T10:35:00,27.4980,-83.7220,1017.75,11111222 
COMPS,ioos:station:USF.COMPS:C12:1,2019-09-09T11:35:00,27.4980,-83.7220,1018.47,11111222 
COMPS,ioos:station:USF.COMPS:C12:1,2019-09-09T12:35:00,27.4980,-83.7220,1018.94,11111222 
COMPS,ioos:station:USF.COMPS:C12:1,2019-09-09T13:35:00,27.4980,-83.7220,1019.24,11111222 
COMPS,ioos:station:USF.COMPS:C12:1,2019-09-09T14:35:00,27.4980,-83.7220,1019.87,11111222 
COMPS,ioos:station:USF.COMPS:C12:1,2019-09-09T15:35:00,27.4980,-83.7220,1020.03,11111222 
COMPS,ioos:station:USF.COMPS:C12:1,2019-09-09T16:35:00,27.4980,-83.7220,1019.75,11111222 
COMPS,ioos:station:USF.COMPS:C12:1,2019-09-09T17:35:00,27.4980,-83.7220,1019.71,11111222 
COMPS,ioos:station:USF.COMPS:C12:1,2019-09-09T21:35:00,27.4980,-83.7220,1017.64,11111222 
COMPS,ioos:station:USF.COMPS:C12:1,2019-09-09T22:35:00,27.4980,-83.7220,1017.68,11111222 
COMPS,ioos:station:USF.COMPS:C12:1,2019-09-09T23:35:00,27.4980,-83.7220,1018.28,11111222 
COMPS,ioos:station:USF.COMPS:C12:1,2019-09-10T00:35:00,27.4980,-83.7220,1018.38,11111222 
COMPS,ioos:station:USF.COMPS:C12:1,2019-09-10T01:35:00,27.4980,-83.7220,1018.85,11111222 
COMPS,ioos:station:USF.COMPS:C12:1,2019-09-10T02:35:00,27.4980,-83.7220,1019.38,11111222 
COMPS,ioos:station:USF.COMPS:C12:1,2019-09-10T03:35:00,27.4980,-83.7220,1019.64,11111222 
COMPS,ioos:station:USF.COMPS:C12:1,2019-09-10T04:35:00,27.4980,-83.7220,1019.24,11111222 
COMPS,ioos:station:USF.COMPS:C12:1,2019-09-10T05:35:00,27.4980,-83.7220,1019.12,11111222 
COMPS,ioos:station:USF.COMPS:C12:1,2019-09-10T06:35:00,27.4980,-83.7220,1018.89,11111222 
COMPS,ioos:station:USF.COMPS:C12:1,2019-09-10T07:35:00,27.4980,-83.7220,1018.48,11111222 
COMPS,ioos:station:USF.COMPS:C12:1,2019-09-10T08:35:00,27.4980,-83.7220,1018.65,11111222 
COMPS,ioos:station:USF.COMPS:C12:1,2019-09-10T09:35:00,27.4980,-83.7220,1018.87,11111222 
COMPS,ioos:station:USF.COMPS:C12:1,2019-09-10T10:35:00,27.4980,-83.7220,1019.39,11111222 
COMPS,ioos:station:USF.COMPS:C12:1,2019-09-10T11:35:00,27.4980,-83.7220,1019.92,11111222 
COMPS,ioos:station:USF.COMPS:C12:1,2019-09-10T12:35:00,27.4980,-83.7220,1020.73,11111222 
COMPS,ioos:station:USF.COMPS:C12:1,2019-09-10T13:35:00,27.4980,-83.7220,1021.14,11111222 
COMPS,ioos:station:USF.COMPS:C12:1,2019-09-10T14:35:00,27.4980,-83.7220,1021.75,11111222 
COMPS,ioos:station:USF.COMPS:C12:1,2019-09-10T15:35:00,27.4980,-83.7220,1021.98,11111222 
COMPS,ioos:station:USF.COMPS:C12:1,2019-09-10T16:35:00,27.4980,-83.7220,1021.45,11111222 
COMPS,ioos:station:USF.COMPS:C12:1,2019-09-10T17:35:00,27.4980,-83.7220,1021.2,11111222 
COMPS,ioos:station:USF.COMPS:C12:1,2019-09-10T18:35:00,27.4980,-83.7220,1020.98,11111222 
COMPS,ioos:station:USF.COMPS:C12:1,2019-09-10T19:35:00,27.4980,-83.7220,1020.56,11111222 
COMPS,ioos:station:USF.COMPS:C12:1,2019-09-10T20:25:00,27.4980,-83.7220,1020.15,11111222 
COMPS,ioos:station:USF.COMPS:C12:1,2019-09-10T21:35:00,27.4980,-83.7220,1019.8,11111222 
COMPS,ioos:station:USF.COMPS:C12:1,2019-09-10T22:35:00,27.4980,-83.7220,1019.27,11111222 
COMPS,ioos:station:USF.COMPS:C12:1,2019-09-10T23:35:00,27.4980,-83.7220,1019.06,11111222 
COMPS,ioos:station:USF.COMPS:C12:1,2019-09-11T00:35:00,27.4980,-83.7220,1019.06,11111222 
COMPS,ioos:station:USF.COMPS:C12:1,2019-09-11T01:35:00,27.4980,-83.7220,1019.42,11111222 
COMPS,ioos:station:USF.COMPS:C12:1,2019-09-11T02:35:00,27.4980,-83.7220,1019.75,11111222 
COMPS,ioos:station:USF.COMPS:C12:1,2019-09-11T03:35:00,27.4980,-83.7220,1020.11,11111222 
COMPS,ioos:station:USF.COMPS:C12:1,2019-09-11T04:35:00,27.4980,-83.7220,1019.94,11111222 
COMPS,ioos:station:USF.COMPS:C12:1,2019-09-11T05:35:00,27.4980,-83.7220,1020.03,11111222 
COMPS,ioos:station:USF.COMPS:C12:1,2019-09-11T06:35:00,27.4980,-83.7220,1019.83,11111222 
COMPS,ioos:station:USF.COMPS:C12:1,2019-09-11T07:35:00,27.4980,-83.7220,1019.54,11111222 
COMPS,ioos:station:USF.COMPS:C12:1,2019-09-11T08:35:00,27.4980,-83.7220,1019.23,11111222 
COMPS,ioos:station:USF.COMPS:C12:1,2019-09-11T09:35:00,27.4980,-83.7220,1019.2,11111222 
COMPS,ioos:station:USF.COMPS:C12:1,2019-09-11T10:35:00,27.4980,-83.7220,1019.45,11111222 
COMPS,ioos:station:USF.COMPS:C12:1,2019-09-11T11:35:00,27.4980,-83.7220,1019.69,11111222 
COMPS,ioos:station:USF.COMPS:C12:1,2019-09-11T12:35:00,27.4980,-83.7220,1020.44,11111222 
COMPS,ioos:station:USF.COMPS:C12:1,2019-09-11T13:35:00,27.4980,-83.7220,1020.34,11111222 
COMPS,ioos:station:USF.COMPS:C12:1,2019-09-11T14:35:00,27.4980,-83.7220,1020.62,11111222 
COMPS,ioos:station:USF.COMPS:C12:1,2019-09-11T15:35:00,27.4980,-83.7220,1020.57,11111222 
COMPS,ioos:station:USF.COMPS:C12:1,2019-09-11T16:35:00,27.4980,-83.7220,1020.0,11111222 
COMPS,ioos:station:USF.COMPS:C12:1,2019-09-11T17:35:00,27.4980,-83.7220,1019.73,11111222 
COMPS,ioos:station:USF.COMPS:C12:1,2019-09-11T18:35:00,27.4980,-83.7220,1019.17,11111222 
COMPS,ioos:station:USF.COMPS:C12:1,2019-09-11T19:35:00,27.4980,-83.7220,1018.3,11111222 
COMPS,ioos:station:USF.COMPS:C12:1,2019-09-11T20:35:00,27.4980,-83.7220,1017.64,11111222 
COMPS,ioos:station:USF.COMPS:C12:1,2019-09-11T21:35:00,27.4980,-83.7220,1017.09,11111222 
COMPS,ioos:station:USF.COMPS:C12:1,2019-09-11T22:35:00,27.4980,-83.7220,1016.73,11111222 
COMPS,ioos:station:USF.COMPS:C12:1,2019-09-11T23:35:00,27.4980,-83.7220,1016.48,11111222 
COMPS,ioos:station:USF.COMPS:C12:1,2019-09-12T01:35:00,27.4980,-83.7220,1016.89,11111222 
COMPS,ioos:station:USF.COMPS:C12:1,2019-09-12T02:35:00,27.4980,-83.7220,1016.71,11111222 
COMPS,ioos:station:USF.COMPS:C12:1,2019-09-12T03:35:00,27.4980,-83.7220,1017.4,11111222 
COMPS,ioos:station:USF.COMPS:C12:1,2019-09-12T04:35:00,27.4980,-83.7220,1017.13,11111222 
COMPS,ioos:station:USF.COMPS:C12:1,2019-09-12T05:35:00,27.4980,-83.7220,1016.69,11111222 
COMPS,ioos:station:USF.COMPS:C12:1,2019-09-12T06:35:00,27.4980,-83.7220,1016.33,11111222 
COMPS,ioos:station:USF.COMPS:C12:1,2019-09-12T07:35:00,27.4980,-83.7220,1015.92,11111222 
COMPS,ioos:station:USF.COMPS:C12:1,2019-09-12T08:35:00,27.4980,-83.7220,1015.84,11111222 
COMPS,ioos:station:USF.COMPS:C12:1,2019-09-12T09:35:00,27.4980,-83.7220,1015.89,11111222 